Regional Weather Roundup
Issued by NWS Northern Indiana

Home | Current Version | Previous Version | Graphics & Text | Print | Product List | Glossary On
Versions: 1 2 3 4 5 6 7 8 9 10 11 12 13 14 15 16 17 18 19 20 21 22 23 24 25 26 27 28 29 30 31 32 33 34 35 36 37 38 39 40 41 42 43 44 45 46 47 48 49 50
000
ASUS43 KIWX 271500
RWRIWX

KIWX WEATHER ROUNDUP
NATIONAL WEATHER SERVICE NORTHERN INDIANA
1100 AM EDT WED AUG 27 2014

NOTE: "FAIR" INDICATES FEW OR NO CLOUDS BELOW 12,000 FEET WITH NO
SIGNIFICANT WEATHER AND/OR OBSTRUCTIONS TO VISIBILITY.

* THESE STATIONS ARE NOT UNDER NWS QUALITY CONTROL. THEY ALSO MAY NOT
  REPORT WEATHER SUCH AS PRECIPITATION OR FOG.

INZ001>027-271600-
NORTHERN INDIANA

CITY           SKY/WX    TMP DP  RH WIND       PRES   REMARKS
GARY*          MOSUNNY   75  63  64 NE6       30.16R
VALPARAISO     SUNNY     73  61  65 E7        30.15S
KNOX*          SUNNY     73  62  70 NE7       30.13F
SOUTH BEND     SUNNY     72  61  68 NE6       30.15S
ELKHART*       SUNNY     72  63  73 CALM      30.15F
GOSHEN         SUNNY     72  64  76 NE7       30.15R
MONTICELLO*    SUNNY     74  69  82 CALM      30.12S
WARSAW*        SUNNY     72  63  73 NE3       30.14S
ANGOLA*        SUNNY     72  63  73 N3        30.14S
FORT WAYNE     PTSUNNY   77  70  79 CALM      30.13R
PERU/GRISSOM   MOSUNNY   75  75 100 NE5       30.12R

$$
INZ028>050-271600-
CENTRAL INDIANA

CITY           SKY/WX    TMP DP  RH WIND       PRES   REMARKS
LAFAYETTE      CLOUDY    73  70  90 CALM      30.12S FOG
KOKOMO*        MOSUNNY   73  70  88 SE6       30.13R
MUNCIE*        MOSUNNY   78  70  76 E7        30.13S
INDIANAPOLIS   MOSUNNY   79  68  69 NE5       30.11R

$$
MIZ043>046-050>051-056>058-064>065-071>073-077>080-271600-
SOUTHWEST LOWER MICHIGAN

CITY           SKY/WX    TMP DP  RH WIND       PRES   REMARKS
BATTLE CREEK   MOSUNNY   69  61  75 N6        30.16R
BENTON HARBOR  MOSUNNY   71  61  70 E5        30.15S
COLDWATER*     MOSUNNY   72  65  80 N3        30.15R
HILLSDALE*     CLOUDY    68  66  94 CALM      30.15S
HOLLAND        MOSUNNY   70  59  68 E5        30.17S
GRAND RAPIDS   MOSUNNY   70  62  76 VRB3      30.17R
KALAMAZOO      MOSUNNY   71  60  68 VRB5      30.15S
STURGIS*         N/A     70  64  83 N3        30.14S
THREE RIVERS*  FAIR      70  62  76 N3        30.15S

$$
OHZ001>008-015>018-024>025-271600-
NORTHWEST OHIO

CITY           SKY/WX    TMP DP  RH WIND       PRES   REMARKS
DEFIANCE       PTSUNNY   75  66  73 CALM      30.13R
FINDLAY        CLOUDY    76  68  76 NW5       30.11R
TOLEDO EXPRESS CLOUDY    72  66  81 N5        30.12R
TOLEDO METCALF CLOUDY    74  65  73 N8        30.13R
LIMA           PTSUNNY   76  70  82 NW6       30.12R

$$
&&


USA.gov is the U.S. government's official web portal to all federal, state and local government web resources and services.